Tracking 27422 objects as of 30-May-2023
HD Live streaming from Space Station
objects crossing your sky now

TEVEL 1

Track TEVEL 1 now!
10-day predictions
TEVEL 1 is classified as:


NORAD ID: 51013
Int'l Code: 2022-002AF
Perigee: 495.6 km
Apogee: 503.9 km
Inclination: 97.4 °
Period: 94.5 minutes
Semi major axis: 6870 km
RCS: Unknown
Launch date: January 13, 2022
Source: Israel (ISRA)
Launch site: AIR FORCE EASTERN TEST RANGE (AFETR)

Uplink (MHz): 145.970
Downlink (MHz): 436.400
Beacon (MHz):
Mode: 9600bps BPSK FM
Call sign: T1OFK
Status: Active

Your satellite tracking list
Your tracking list is empty




NASA's NSSDC Master Catalog

Two Line Element Set (TLE):
1 51013U 22002AF  23150.40373986  .00014924  00000-0  61093-3 0  9999
2 51013  97.4336 217.4439 0006058 295.6167  64.4444 15.24393742 76053
Source of the keplerian elements: AMSAT